Total_Precipitation_Accumulation
0.70 0.72 0.71 0.61 0.49 0.47 0.47 0.45 0.45 0.49 0.55 0.56 0.59 0.65 0.65 0.66 0.68 0.69 0.74 0.79 0.86 0.97 1.03 1.14 1.35 1.54 1.60 1.59 1.61 1.63 1.64 1.53 1.31 1.20 0.99 0.96 1.11 1.12 1.11 1.05 1.12 1.16 0.93
0.65 0.62 0.58 0.51 0.44 0.43 0.41 0.38 0.40 0.45 0.47 0.49 0.54 0.58 0.58 0.63 0.66 0.65 0.65 0.66 0.75 0.83 0.84 0.85 0.95 1.18 1.33 1.44 1.50 1.52 1.58 1.59 1.46 1.42 1.32 1.09 1.06 1.12 1.23 1.30 1.24 1.20 1.14
0.70 0.60 0.56 0.52 0.49 0.47 0.42 0.41 0.41 0.48 0.59 0.62 0.61 0.64 0.62 0.64 0.63 0.64 0.66 0.66 0.69 0.75 0.79 0.81 0.86 0.96 1.11 1.19 1.30 1.40 1.48 1.61 1.59 1.42 1.44 1.38 1.19 1.17 1.22 1.29 1.34 1.42 1.30
0.90 0.77 0.68 0.61 0.54 0.48 0.44 0.43 0.42 0.45 0.51 0.54 0.63 0.71 0.79 0.83 0.82 0.77 0.74 0.72 0.68 0.70 0.77 0.84 0.86 0.87 0.97 1.19 1.32 1.39 1.42 1.52 1.64 1.57 1.50 1.47 1.33 1.25 1.25 1.27 1.40 1.48 1.47
0.92 0.80 0.66 0.55 0.45 0.43 0.46 0.49 0.46 0.41 0.44 0.45 0.53 0.62 0.72 0.81 0.86 0.84 0.69 0.59 0.61 0.66 0.66 0.68 0.76 0.83 0.86 1.00 1.16 1.39 1.41 1.50 1.57 1.64 1.56 1.41 1.29 1.21 1.16 1.17 1.26 1.44 1.49
0.74 0.70 0.54 0.48 0.43 0.39 0.42 0.48 0.49 0.39 0.38 0.39 0.44 0.42 0.45 0.49 0.65 0.64 0.51 0.43 0.50 0.60 0.67 0.69 0.69 0.70 0.72 0.76 0.79 1.04 1.23 1.35 1.43 1.45 1.49 1.36 1.24 1.18 1.25 1.24 1.18 1.24 1.35
0.45 0.45 0.36 0.34 0.41 0.42 0.45 0.44 0.38 0.31 0.34 0.36 0.32 0.28 0.30 0.33 0.38 0.36 0.40 0.43 0.47 0.52 0.61 0.70 0.74 0.72 0.77 0.86 0.82 0.85 0.95 1.02 1.13 1.24 1.27 1.21 1.17 1.14 1.21 1.24 1.20 1.14 1.05
0.20 0.17 0.14 0.21 0.30 0.32 0.30 0.28 0.23 0.23 0.29 0.36 0.31 0.29 0.33 0.30 0.32 0.36 0.38 0.41 0.56 0.62 0.61 0.62 0.73 0.79 0.84 0.98 0.97 1.05 0.98 0.88 0.86 0.91 1.03 1.08 1.04 1.14 1.22 1.36 1.40 1.25 1.15
0.02 0.02 0.04 0.05 0.06 0.06 0.06 0.07 0.11 0.15 0.20 0.19 0.23 0.37 0.38 0.34 0.42 0.40 0.33 0.41 0.54 0.62 0.58 0.61 0.73 0.82 0.95 1.05 1.10 1.13 1.03 0.93 0.96 1.03 1.09 1.14 1.15 1.23 1.29 1.34 1.37 1.33 1.24
0.00 0.00 0.00 0.01 0.01 0.01 0.01 0.01 0.03 0.06 0.09 0.10 0.14 0.27 0.34 0.36 0.36 0.27 0.27 0.39 0.52 0.60 0.62 0.63 0.84 0.85 0.93 0.97 1.03 1.14 1.15 1.01 0.93 0.95 1.00 1.03 1.04 1.14 1.32 1.32 1.39 1.42 1.27
0.00 0.00 0.00 0.01 0.01 0.01 0.02 0.01 0.01 0.01 0.02 0.06 0.10 0.14 0.15 0.16 0.16 0.17 0.23 0.30 0.37 0.50 0.58 0.62 0.59 0.71 0.73 0.83 0.94 1.01 1.21 1.08 1.00 1.01 1.00 0.92 0.89 0.96 1.08 1.25 1.36 1.37 1.27
0.00 0.00 0.00 0.01 0.01 0.01 0.03 0.02 0.01 0.01 0.02 0.03 0.06 0.10 0.09 0.08 0.07 0.10 0.13 0.16 0.23 0.31 0.40 0.52 0.51 0.59 0.64 0.71 0.73 0.89 1.05 1.02 0.97 1.03 1.02 0.95 0.88 0.86 0.89 0.95 1.11 1.17 1.11
0.00 0.01 0.00 0.00 0.01 0.01 0.01 0.01 0.01 0.01 0.02 0.02 0.04 0.08 0.09 0.10 0.09 0.09 0.11 0.14 0.18 0.22 0.25 0.41 0.48 0.55 0.54 0.54 0.65 0.83 0.87 0.93 1.05 1.01 1.01 0.95 0.88 0.84 0.77 0.80 0.91 0.97 0.95
0.00 0.00 0.00 0.00 0.01 0.01 0.01 0.01 0.01 0.02 0.02 0.02 0.04 0.06 0.11 0.13 0.09 0.09 0.13 0.17 0.20 0.21 0.24 0.37 0.49 0.56 0.54 0.53 0.60 0.73 0.79 0.90 1.04 0.96 0.93 0.88 0.81 0.81 0.77 0.76 0.79 0.84 0.87
0.00 0.00 0.00 0.01 0.01 0.01 0.01 0.01 0.01 0.01 0.02 0.03 0.03 0.05 0.06 0.07 0.07 0.11 0.15 0.19 0.22 0.23 0.32 0.49 0.63 0.64 0.64 0.60 0.63 0.72 0.71 0.69 0.77 0.76 0.79 0.80 0.77 0.76 0.71 0.65 0.66 0.68 0.69
0.00 0.00 0.00 0.01 0.01 0.01 0.02 0.02 0.01 0.02 0.03 0.03 0.03 0.04 0.04 0.06 0.08 0.12 0.17 0.22 0.24 0.34 0.51 0.69 0.80 0.88 0.86 0.78 0.74 0.72 0.66 0.65 0.64 0.67 0.74 0.74 0.70 0.72 0.71 0.63 0.62 0.62 0.62
0.00 0.00 0.00 0.00 0.01 0.01 0.01 0.02 0.03 0.03 0.02 0.02 0.03 0.03 0.04 0.07 0.11 0.19 0.25 0.29 0.35 0.57 0.79 0.84 0.86 0.90 0.91 0.82 0.72 0.66 0.56 0.51 0.52 0.57 0.59 0.61 0.62 0.62 0.64 0.61 0.59 0.55 0.52
0.00 0.00 0.00 0.01 0.01 0.01 0.01 0.01 0.03 0.05 0.06 0.04 0.03 0.03 0.04 0.07 0.15 0.25 0.38 0.48 0.54 0.69 0.83 0.85 0.93 0.91 0.86 0.73 0.59 0.52 0.43 0.41 0.44 0.45 0.43 0.40 0.44 0.48 0.51 0.53 0.54 0.50 0.45
0.01 0.01 0.01 0.01 0.02 0.02 0.02 0.02 0.03 0.04 0.05 0.05 0.06 0.06 0.06 0.08 0.12 0.18 0.25 0.32 0.33 0.40 0.48 0.54 0.58 0.58 0.53 0.46 0.40 0.37 0.33 0.32 0.34 0.35 0.35 0.35 0.38 0.39 0.38 0.41 0.45 0.48 0.47
0.01 0.01 0.02 0.02 0.03 0.03 0.03 0.04 0.04 0.05 0.05 0.06 0.06 0.07 0.09 0.11 0.13 0.14 0.15 0.17 0.19 0.21 0.24 0.25 0.26 0.26 0.26 0.27 0.27 0.29 0.31 0.32 0.33 0.36 0.36 0.36 0.38 0.40 0.37 0.36 0.37 0.38 0.38
0.02 0.03 0.03 0.03 0.04 0.04 0.04 0.05 0.06 0.06 0.06 0.06 0.06 0.08 0.10 0.12 0.13 0.15 0.16 0.18 0.19 0.19 0.19 0.20 0.21 0.22 0.22 0.24 0.28 0.30 0.32 0.33 0.33 0.35 0.37 0.36 0.36 0.38 0.39 0.39 0.38 0.36 0.35
0.03 0.03 0.03 0.04 0.05 0.05 0.05 0.05 0.05 0.06 0.07 0.08 0.08 0.08 0.11 0.14 0.17 0.18 0.18 0.20 0.22 0.23 0.21 0.22 0.23 0.24 0.26 0.27 0.31 0.36 0.36 0.37 0.37 0.36 0.38 0.39 0.39 0.39 0.38 0.36 0.36 0.38 0.35
0.05 0.05 0.06 0.06 0.06 0.06 0.07 0.06 0.07 0.08 0.09 0.10 0.10 0.10 0.11 0.13 0.16 0.18 0.19 0.20 0.23 0.23 0.21 0.22 0.24 0.25 0.26 0.27 0.31 0.36 0.39 0.40 0.42 0.42 0.43 0.43 0.43 0.42 0.42 0.39 0.36 0.35 0.35
0.06 0.06 0.07 0.07 0.07 0.08 0.09 0.09 0.09 0.09 0.10 0.11 0.11 0.11 0.12 0.13 0.14 0.15 0.17 0.20 0.22 0.23 0.22 0.23 0.24 0.26 0.27 0.29 0.32 0.34 0.35 0.38 0.44 0.49 0.51 0.50 0.47 0.46 0.48 0.48 0.43 0.41 0.43
0.07 0.07 0.07 0.08 0.09 0.09 0.09 0.10 0.11 0.11 0.12 0.13 0.14 0.14 0.15 0.16 0.18 0.20 0.22 0.23 0.25 0.26 0.25 0.24 0.24 0.26 0.28 0.30 0.32 0.34 0.40 0.43 0.44 0.47 0.50 0.52 0.50 0.50 0.51 0.49 0.47 0.46 0.46
0.06 0.07 0.08 0.09 0.09 0.09 0.10 0.10 0.11 0.14 0.15 0.16 0.16 0.19 0.21 0.23 0.23 0.24 0.27 0.29 0.30 0.30 0.29 0.28 0.28 0.28 0.27 0.27 0.29 0.33 0.40 0.42 0.42 0.46 0.48 0.51 0.54 0.53 0.52 0.51 0.47 0.44 0.42